Location: Chervonnoye
(48.6000°N, 34.4000°E)
Time: 15:36:11
(UTC+00:00)

UKube-1 - Visible Passes

Search period start: 28 November 2021 00:00
Search period end: 08 December 2021 00:00
Orbit: 612 x 616 km, 98.4° (Epoch: 28 November)

Date Brightness Start Highest point End Pass type
(mag) Time Alt. Az. Time Alt. Az. Time Alt. Az.
28 Nov ? 03:56:59 10° ENE 03:57:47 10° NE 03:58:34 10° NE visible
29 Nov ? 04:10:50 10° E 04:13:05 14° ENE 04:15:20 10° NNE visible
30 Nov ? 04:25:24 10° ESE 04:28:24 19° ENE 04:31:24 10° NNE visible
05 Dec ? 04:08:15 10° E 04:10:11 13° NE 04:12:07 10° NNE visible
06 Dec ? 04:22:41 10° E 04:25:29 17° ENE 04:28:17 10° NNE visible
07 Dec ? 04:37:27 10° ESE 04:40:49 23° ENE 04:44:11 10° N visible
